User: anonymous   Login
Location: *
(51.5000°N, 0.1100°W)
Time: 23:25:32
(UTC+00:00)
Language:

CZ-2C R/B - Orbit

View from above orbital plane
View from above orbital plane
View from above satellite
View from above satellite

Ground track
Ground track

The orbit data is extracted from the following two-line orbital elements,

1 28480U 04046B   24204.79430597  .00000578  00000-0  23074-3 0  9991
2 28480  98.1630 146.6334 0141678 113.8168 247.7940 14.26408969 23673
Epoch (UTC): 22 July 2024 19:03:48
Eccentricity: 0.0141678
inclination: 98.1630°
perigee height: 702 km
apogee height: 905 km
right ascension of ascending node: 146.6334°
argument of perigee: 113.8168°
revolutions per day: 14.26408969
mean anomaly at epoch: 247.7940°
orbit number at epoch: 2367

The dashed part of the orbit path shows where the satellite is in the earth's shadow,  

DLR